Location: Chervonnoye
(48.6000°N, 34.4000°E)
Time: 17:16:38
(UTC+00:00)

UKube-1 - Pass Details

Date: 30 November 2021
Orbit: 610 x 618 km, 98.4° (Epoch: 20 January)

Event Time Altitude Azimuth Distance (km) Brightness Sun altitude
Rises 04:22:09 0° 122° (ESE) 2,887 ? -8.1°
Reaches altitude 10° 04:24:51 10° 104° (ESE) 1,986 ? -7.7°
Maximum altitude 04:27:49 18° 60° (ENE) 1,512 ? -7.3°
Drops below altitude 10° 04:30:48 10° 17° (NNE) 1,995 ? -6.8°
Sets 04:33:31 0° 359° (N) 2,905 ? -6.4°
